This is the latest recevied weather packets stored in our database for station/object W8DRH-13. If no packets are shown the sender has not sent any weather packets the latest 10 day(s).
| Time | Temp. | Humidity | Pressure | Rain* | Wind** | Luminosity | Snow |
|---|---|---|---|---|---|---|---|
| 1778071070 | 6.67° C | 99% | 1008.2 hPa | 0 mm | - | 82 W/m² | - |
| 1778070768 | 6.11° C | 99% | 1008.3 hPa | 0 mm | - | 85 W/m² | - |
| 1778070465 | 6.11° C | 99% | 1007.9 hPa | 0 mm | - | 74 W/m² | - |
| 1778070162 | 6.11° C | 99% | 1008.1 hPa | 0 mm | - | 55 W/m² | - |
| 1778069860 | 6.11° C | 99% | 1007.9 hPa | 0 mm | - | 42 W/m² | - |
| 1778069556 | 6.11° C | 99% | 1007.8 hPa | 0 mm | - | 33 W/m² | - |
| 1778069253 | 6.11° C | 99% | 1007.8 hPa | 0 mm | - | 17 W/m² | - |
| 1778068951 | 6.11° C | 99% | 1007.5 hPa | 0 mm | - | 32 W/m² | - |
| 1778068649 | 6.11° C | 99% | 1007.4 hPa | 0 mm | - | 49 W/m² | - |
| 1778068347 | 6.11° C | 99% | 1007.2 hPa | 0 mm | - | 26 W/m² | - |
| 1778068045 | 5.56° C | 99% | 1007.1 hPa | 0 mm | - | 36 W/m² | - |
| 1778067742 | 5.56° C | 99% | 1006.8 hPa | 0 mm | - | 42 W/m² | - |
| 1778067440 | 5.56° C | 99% | 1007 hPa | 0 mm | - | 43 W/m² | - |
| 1778067137 | 5.56° C | 99% | 1006.8 hPa | 0 mm | - | 31 W/m² | - |
| 1778066834 | 5.56° C | 99% | 1006.8 hPa | 0 mm | - | 26 W/m² | - |
| 1778066532 | 5.56° C | 99% | 1006.7 hPa | 0 mm | - | 29 W/m² | - |
| 1778066229 | 5.56° C | 99% | 1006.7 hPa | 0 mm | - | 17 W/m² | - |
| 1778065927 | 5.56° C | 99% | 1006.9 hPa | 0 mm | - | 10 W/m² | - |
| 1778065623 | 5.56° C | 99% | 1006.9 hPa | 0 mm | - | 11 W/m² | - |
| 1778065321 | 5.56° C | 99% | 1007.1 hPa | 0 mm | - | 6 W/m² | - |
| 1778065017 | 5.56° C | 99% | 1007.2 hPa | 0 mm | - | 2 W/m² | - |
| 1778064714 | 5.56° C | 99% | 1007.2 hPa | 0 mm | - | 0 W/m² | - |
| 1778064412 | 5° C | 99% | 1006.6 hPa | 0 mm | - | 1 W/m² | - |
| 1778064110 | 5.56° C | 99% | 1006.3 hPa | 0 mm | - | 1 W/m² | - |
| 1778063807 | 5.56° C | 99% | 1006.2 hPa | 0 mm | - | 0 W/m² | - |
* Rain latest hour (hover to see other rain measurements)
** Current wind speed in m/s (hover to see current wind gust speed)